Weather in Ensenada

Mexico     31°51′51″N   116°36′14″W
temp.,
°C
wind,
m/s
gust,
m/s
humid.,
%
clouds,
%
prec.,
mm/h
press.,
hPa
HPBL,
m
17 may, mon
mon1723:00+11wnw018532 0.1 1017279
02:00+9nw119150 0.0 101755
05:00+10e018855 0.0 101652
08:00+13nw117154 0.0 1017543
11:00+18wnw445811 0.0 1016871
14:00+19wnw54574 0.0 1015753
17:00+16wnw447368 0.0 1015674
20:00+13wnw228962 0.0 1016250
18 may, tue
tue1823:00+12nw119144 0.0 1016158
02:00+11nw229237 0.0 1016176
05:00+10nnw119325 0.0 101580
08:00+14wnw227727 0.0 1015396
11:00+19w42550 0.0 1014650
14:00+21w42490 0.0 1012573
17:00+20wnw32530 0.0 1011377
20:00+13wnw229119 0.0 101250
19 may, wed
wed1923:00+12ne119226 0.0 101352
02:00+11wsw008925 0.0 101214
05:00+10ssw009526 0.0 101227
08:00+16wsw226946 0.0 1012233
11:00+22w4244100 0.0 1011512
14:00+23w4344100 0.0 1011504
17:00+19w4360100 0.0 1010356
20:00+12wnw2391100 0.0 101276
20 may, thu
thu2023:00+11nw1193100 0.0 101329
02:00+10nw229499 0.0 101333
05:00+10n1191100 0.0 1013102
08:00+13nw2272100 0.0 1013256
11:00+16wnw3361100 0.0 1013426
14:00+16wnw4457100 0.0 1013533
17:00+15wnw33560 0.0 1012512
20:00+10wnw22877 0.0 101333
21 may, fri
fri2123:00+8n11937 0.0 101427
02:00+7ne11914 0.0 101328
05:00+7nnw118814 0.0 101441
08:00+12nw12661 0.0 1015455
11:00+17w43410 0.0 1014826
14:00+17wnw55460 0.0 1015818
17:00+15wnw55550 0.0 1014737
20:00+11wnw238444 0.0 1016253